Location: ?????????
(54.7630°N, 39.4991°E)
Time: 08:10:45
(UTC+00:00)

Feng Yun 1-1 Rocket - Pass Details

Date: 14 April 2026
Orbit: 829 x 933 km, 99.0° (Epoch: 9 May)

Event Time Altitude Azimuth Distance (km) Brightness Sun altitude
Rises 17:00:26 0° 157° (SSE) 3,452 6.9 -5.7°
Reaches altitude 10° 17:02:49 10° 156° (SSE) 2,503 6.2 -6.1°
Maximum altitude 17:08:22 81° 71° (ENE) 868 4.2 -6.8°
Drops below altitude 10° 17:13:50 10° 345° (NNW) 2,465 7.3 -7.5°
Sets 17:16:11 0° 344° (NNW) 3,396 8.1 -7.8°
